Location: Recife
(8.0585°S, 34.8848°W)
Time: 07:51:00
(UTC-03:00)

Courier 1B Rocket - Pass Details

Date: 22 April 2026
Orbit: 920 x 1201 km, 28.2° (Epoch: 13 May)

Event Time Altitude Azimuth Distance (km) Brightness Sun altitude
Rises 07:07:11 0° 227° (SW) 3,645 7.5 24.4°
Reaches altitude 10° 07:11:34 10° 199° (SSW) 2,755 7.1 25.5°
Maximum altitude 07:14:30 13° 173° (S) 2,580 7.2 26.2°
Drops below altitude 10° 07:17:29 10° 147° (SSE) 2,843 7.7 26.9°
Sets 07:22:10 0° 121° (ESE) 3,870 8.7 28.0°
